Location: ????????
(54.5609°N, 39.0301°E)
Time: 12:51:18
(UTC+00:00)

Daily predictions for brighter satellites

Satellite Brightness Start Highest point End
(mag) Time Altitude Azimuth Time Altitude Azimuth Time Altitude Azimuth
Cosmos 1725 Rocket 4.1 17:55:13 10° S 18:01:29 85° E 18:07:45 10° NNE
DEBRIS 3.8 17:59:59 10° SW 18:02:49 38° SSE 18:10:02 10° E
Cosmos 1331 Rocket 4.5 17:57:46 10° SW 18:02:59 69° WNW 18:08:11 10° NNE
Okean-O 2.6 17:59:24 10° SSE 18:03:47 89° ENE 18:08:11 10° NNW
Cosmos 2228 2.9 18:00:15 10° S 18:04:18 64° E 18:08:23 10° NNE
Tsikada Rocket 4.0 17:58:28 10° N 18:04:42 88° E 18:10:51 10° S
DNEPR-1 R/B 4.4 18:00:03 10° NW 18:05:12 70° NE 18:11:30 10° ESE
Cosmos 1452 Rocket 3.6 18:00:00 10° SSW 18:05:14 86° WNW 18:10:32 10° NNE
Cosmos 1437 Rocket 3.9 18:03:12 10° SE 18:05:59 22° E 18:08:49 10° NE
Meteor 1-27 4.3 18:03:54 10° S 18:09:33 88° E 18:15:09 10° NNE
Cosmos 2278 4.0 18:04:45 10° NNW 18:10:27 64° NE 18:16:07 10° SE
ADEOS 4.3 18:06:26 10° S 18:11:31 53° W 18:16:39 10° NNW
USA 186 1.4 18:09:41 10° S 18:12:23 78° WSW 18:15:10 10° NNW
Cosmos 1758 Rocket 3.7 18:09:03 10° N 18:13:26 65° ENE 18:17:49 10° SSE
SL-16 R/B 2.3 18:09:52 10° NNW 18:15:35 81° NE 18:21:17 10° SE
Cosmos 1302 Rocket 4.0 18:10:33 10° SSW 18:15:43 77° ESE 18:20:56 10° NNE
ISS -3.3 18:13:22 10° WSW 18:16:33 42° SSE 18:19:44 10° E
Cosmos 2016 Rocket 4.1 18:10:40 10° SSW 18:16:55 84° W 18:23:09 10° N
CZ-4C R/B 2.1 18:12:27 10° SW 18:16:57 80° NW 18:22:52 10° NE
EP 1 4.3 18:15:36 10° NW 18:18:14 69° NE 18:20:50 10° ESE
Cosmos 724 4.3 18:12:50 10° SW 18:18:51 84° SE 18:24:48 10° NE
NOSS 3 (A) 4.2 18:18:18 10° NW 18:20:20 55° NE 18:22:49 10° ESE
SL-08 R/B 3.4 18:17:44 10° NNE 18:22:37 88° WNW 18:27:23 10° SSW
CZ-4B R/B 2.5 18:20:12 10° SSE 18:23:33 66° ENE 18:27:01 10° N
NOSS 3-3 (C) 4.0 18:24:22 10° SSW 18:29:29 50° SE 18:35:38 10° NE
COSMOS 2406 3.5 18:24:29 10° S 18:29:57 47° ESE 18:35:25 10° NE
Cosmos 1980 Rocket 4.1 18:27:29 10° NW 18:32:02 25° WSW 18:36:33 10° SSW
USA 306 1.5 18:29:28 10° WSW 18:32:22 47° SSE 18:34:16 10° E
Meteor 1-20 Rocket 4.2 18:26:51 10° NNW 18:32:27 85° ENE 18:38:08 10° SSE
Terra 3.6 18:31:20 10° SSW 18:35:22 28° W 18:39:27 10° NNW
Helios 1A Rocket 4.4 18:34:05 10° N 18:36:54 29° WNW 18:39:41 10° SW
YAOGAN 11 4.1 18:32:37 10° NNE 18:37:04 88° ESE 18:41:32 10° SSW
Cosmos 1602 Rocket 3.6 18:33:37 10° N 18:37:55 66° ENE 18:41:56 12° SSE
NOSS 3-4 (A) 3.8 18:33:39 10° NW 18:40:07 88° SW 18:47:25 12° SE
Cosmos 2333 Rocket 2.3 18:35:01 10° NW 18:40:45 80° WSW 18:46:04 12° SSE
NOSS 3-4 (C) 3.8 18:34:16 10° NW 18:40:46 88° SW 18:48:04 12° SE
CZ-4 R/B 4.2 18:41:22 10° WSW 18:42:24 11° W 18:43:26 10° WNW
USA 245 4.4 18:37:49 10° S 18:43:43 76° WSW 18:49:16 10° NNW
Cosmos 2061 Rocket 4.2 18:40:47 10° SSW 18:47:01 80° WNW 18:53:22 10° N
Cosmos 1933 3.3 18:44:38 10° S 18:48:22 59° E 18:52:08 10° NNE
Cosmos 1464 Rocket 4.4 18:44:19 11° SSE 18:50:00 46° E 18:55:52 10° NNE
Cosmos 44 Rocket 4.4 18:45:27 10° WSW 18:50:28 53° NW 18:55:36 10° NE
ATLAS 2AS CENTAUR R/B 3.9 18:44:56 10° W 18:51:30 45° NNW 18:58:01 10° NE
Cosmos 1626 Rocket 4.3 18:50:17 10° NNW 18:54:31 50° W 18:58:45 10° S
Cosmos 1607 4.2 18:52:01 10° SW 18:58:13 78° NW 19:04:34 10° NE
SPOT 3 Rocket 3.9 18:53:08 10° S 18:58:14 62° WSW 19:03:21 10° NNW
Cosmos 2360 Rocket 2.2 18:53:07 10° NNW 18:58:51 87° NE 19:03:37 15° SSE
Cosmos 1805 2.7 18:56:34 10° N 18:59:51 80° ENE 19:02:14 17° SSE
Ariane Rocket 3.2 18:57:02 11° S 19:01:52 71° WSW 19:06:58 10° NNW
Cosmos 1076 Rocket 4.0 18:58:49 10° N 19:02:58 47° ENE 19:06:00 17° SE
Cosmos 2098 Rocket 3.3 18:58:40 12° S 19:02:58 54° E 19:07:02 10° NNE
Cosmos 2333 4.3 18:58:02 10° NNW 19:03:48 83° ENE 19:08:32 16° SE
Meteor 1-25 Rocket 4.4 18:58:40 10° NNW 19:04:23 75° W 19:09:34 12° S
BREEZE-M DEB (TANK) 2.2 19:03:11 10° WSW 19:05:24 24° S 19:05:38 23° SSE
Cosmos 220 Rocket 4.0 19:04:08 10° S 19:08:04 53° ESE 19:12:05 10° NE
Cosmos 1536 4.1 19:07:02 10° N 19:10:07 24° ENE 19:12:23 14° ESE
Cosmos 2219 Rocket 2.3 19:07:20 10° NNW 19:13:01 76° NE 19:17:33 17° SE
Helios 1A 4.1 19:10:20 10° NE 19:13:39 25° E 19:15:27 18° SE
Cosmos 1606 Rocket 3.7 19:12:21 16° SSE 19:15:37 54° E 19:19:51 10° NNE
Cosmos 2151 4.0 19:13:23 10° NNW 19:17:14 39° W 19:21:03 10° SSW
Cosmos 1763 Rocket 4.2 19:15:44 17° SSE 19:19:15 35° ESE 19:24:00 10° NE
Helios 1B rocket 3.1 19:18:06 17° ESE 19:20:14 33° ENE 19:23:25 10° N
Okean 1 3.4 19:18:42 21° SSE 19:20:47 46° E 19:24:14 10° NNE
Okean O Rocket 3.8 19:17:49 10° SW 19:20:59 20° W 19:24:10 10° NW
Cosmos 990 Rocket 4.0 19:18:55 10° NNW 19:24:07 80° ENE 19:27:52 19° SSE
Cosmos 1726 Rocket 3.7 19:22:24 20° SSE 19:24:55 48° E 19:28:50 10° NNE
Cosmos 2034 Rocket 4.2 19:22:29 16° SSE 19:27:33 58° E 19:33:46 10° NNE
TSX-5 4.3 19:26:35 10° NNW 19:29:30 36° NE 19:31:39 16° ESE
Cosmos 2322 Rocket 2.5 19:24:14 10° NW 19:29:47 58° WSW 19:33:58 18° S
Okean 1-7 Rocket 3.8 19:25:44 10° NNW 19:30:10 66° W 19:33:33 17° S
Cosmos 1461 2.4 19:26:41 10° SW 19:30:23 76° SE 19:34:03 10° NE
RESURS DK-1 3.6 19:27:06 10° NNW 19:30:46 33° NE 19:34:01 12° ESE
CZ-2C R/B 3.5 19:30:01 15° SSW 19:31:47 29° W 19:34:17 10° NW
Cosmos 1470 4.2 19:29:42 10° NNE 19:32:13 20° ENE 19:33:54 14° ESE
CZ-4B R/B 4.5 19:27:58 10° SSW 19:32:18 38° W 19:36:49 10° NNW
Cosmos 1777 Rocket 4.5 19:30:08 10° NNW 19:35:15 53° WSW 19:39:00 18° S
Cosmos 2082 Rocket 3.4 19:30:54 10° WSW 19:36:22 45° NW 19:41:50 10° NNE
GRACE-FO 1 4.5 19:37:11 21° S 19:39:23 78° W 19:42:53 10° N
Cosmos 1437 Rocket 3.9 19:37:09 10° SW 19:40:29 37° WNW 19:43:53 10° N
Cosmos 1975 4.4 19:38:06 10° NNE 19:41:04 22° ENE 19:43:05 15° ESE
Cosmos 1503 Rocket 4.3 19:37:07 10° NNW 19:42:14 59° WSW 19:45:44 20° S
Cosmos 909 Rocket 4.5 19:36:23 10° WSW 19:42:39 68° NW 19:49:25 10° NE
Nadezhda 4 Rocket 4.2 19:36:48 10° NNW 19:42:52 65° W 19:47:52 15° S
Meteor 1-26 Rocket 4.5 19:42:46 20° SSE 19:46:27 54° E 19:52:01 10° NNE
Cosmos 2237 Rocket 3.6 19:42:38 10° NNW 19:47:46 33° NE 19:52:52 10° ESE
NOSS 3-3 (A) 4.3 19:43:29 10° WSW 19:48:58 66° NNW 19:55:42 10° NE
Cosmos 44 3.5 19:45:32 10° NW 19:50:59 84° SW 19:54:37 21° SE
IKONOS-2 4.5 19:47:17 10° NNE 19:51:24 62° ESE 19:53:46 24° S
Cosmos 1634 Rocket 4.3 19:48:18 20° SSE 19:52:20 51° E 19:58:19 10° NNE
ISS -3.6 19:49:50 10° W 19:53:05 48° S 19:54:30 28° SE
Cosmos 1354 Rocket 4.2 19:50:38 10° NNW 19:55:51 65° WSW 19:59:07 23° S
Cosmos-2242 3.1 19:54:02 26° SSE 19:56:11 57° E 20:00:14 10° NNE
COSMOS 2428 3.1 19:50:52 10° NNW 19:56:32 61° NE 20:00:54 17° SE
SL-16 R/B 3.9 19:54:41 10° NW 19:59:04 24° WSW 20:03:19 11° SSW
USA 306 3.0 19:57:08 10° W 19:58:04 19° W 19:58:04 19° W
CZ-2C R/B 4.2 19:56:07 10° ESE 20:00:20 25° NE 20:04:32 10° N
KORONAS-FOTON 4.2 19:59:46 30° SE 20:00:47 38° E 20:03:58 10° NNE
USA 290 2.1 20:01:14 24° SSW 20:03:00 85° WNW 20:06:09 10° NNE
Cosmos 1707 1.9 20:04:33 44° SSE 20:05:14 65° E 20:08:04 10° NNE
Cosmos 2026 Rocket 4.2 19:59:29 10° NNW 20:05:52 74° W 20:10:23 20° S
CZ-4C R/B 3.8 20:01:11 10° W 20:05:56 38° N 20:12:05 10° ENE
Cosmos 372 Rocket 3.9 20:02:29 10° NNW 20:07:39 83° ENE 20:10:44 24° SSE
Cosmos 1953 Rocket 4.0 20:05:56 10° NNW 20:10:11 53° W 20:12:42 23° SSW
COSMOS 2406 4.3 20:08:46 10° WSW 20:14:17 46° NW 20:19:50 10° NNE
Aureole 1 Rocket 3.9 20:11:04 10° NNW 20:16:33 71° WSW 20:20:45 23° SSE
Meteor 1-14 Rocket 4.3 20:12:30 10° N 20:18:04 68° ENE 20:21:27 24° SSE
Cosmos 1271 Rocket 3.1 20:19:22 32° SE 20:20:12 37° E 20:23:22 10° NNE
Cosmos 2221 3.4 20:18:37 25° SE 20:20:13 34° E 20:24:01 10° NNE
GP-B 4.4 20:18:28 10° NNE 20:22:18 29° E 20:24:23 20° ESE
Cosmos 540 Rocket 3.4 20:18:42 17° SSW 20:22:39 88° ESE 20:27:50 10° NNE
Cosmos 2058 Rocket 3.0 20:20:44 27° S 20:23:07 88° E 20:27:28 10° NNE
Cosmos 2333 Rocket 4.2 20:20:31 10° WNW 20:24:11 18° W 20:27:52 10° SW
Cosmos 1937 Rocket 3.6 20:20:18 10° NNW 20:25:28 69° ENE 20:28:40 23° SE
Cosmos 1766 3.7 20:25:10 10° NNW 20:28:11 37° W 20:29:18 27° SW
Geosat 4.0 20:25:10 10° NNE 20:30:13 85° WNW 20:34:37 13° SW
Spot 4 3.8 20:28:46 28° SSE 20:31:20 89° WSW 20:36:10 10° NNW
ARGOS Delta rocket 4.4 20:27:56 10° NNE 20:32:56 52° E 20:35:39 26° SSE
BREEZE-M R/B 4.3 20:26:28 10° W 20:33:48 55° SSW 20:39:28 10° ESE
Cosmos 468 Rocket 4.0 20:30:46 24° S 20:33:54 68° ESE 20:39:07 10° NNE
Cosmos 1842 2.6 20:33:12 46° SSE 20:33:58 68° E 20:37:07 10° NNE
Cosmos 1833 4.2 20:29:39 13° SW 20:34:50 84° NW 20:40:30 10° NNE
ARIANE 5 R/B 2.6 20:34:30 30° S 20:36:40 80° WSW 20:41:11 10° NNW
CZ-2C R/B 4.3 20:32:02 10° NNE 20:37:13 34° E 20:40:12 21° SE
Cosmos 2297 Rocket 3.6 20:35:27 19° SE 20:37:31 23° ESE 20:41:49 10° NE
ALOS 2 2.5 20:35:46 30° SSE 20:37:55 89° ENE 20:42:21 10° NNW
Meteor 2-6 Rocket 4.3 20:35:51 24° S 20:39:34 78° E 20:45:33 10° NNE
USA 234 3.8 20:35:48 10° ENE 20:41:44 35° SE 20:44:47 24° S
Cosmos 2360 Rocket 3.9 20:37:59 10° NW 20:42:09 21° WSW 20:45:21 13° SW
Cosmos 2322 3.8 20:36:31 10° NW 20:42:12 69° WSW 20:45:23 27° SSE
ATLAS 2AS CENTAUR R/B 4.0 20:37:23 10° WNW 20:43:47 41° N 20:50:09 10° ENE
Cosmos 1536 3.7 20:42:03 10° NNW 20:45:26 35° W 20:46:54 25° SW
Helios 1A 3.9 20:44:46 10° N 20:48:29 41° WNW 20:51:10 17° SW
Helios 1B rocket 3.6 20:52:03 21° SW 20:53:16 25° W 20:56:14 10° NW
PSLV R/B 3.7 20:51:14 10° NNE 20:55:28 62° ESE 20:57:18 32° S
Cosmos 2219 Rocket 3.6 20:51:54 10° NW 20:56:26 25° WSW 20:59:14 17° SW
Cosmos 1898 Rocket 3.7 20:51:57 10° NNW 20:57:03 58° WSW 20:59:35 29° S
SeaSat 1 3.1 20:55:07 13° ESE 20:59:22 52° NE 21:04:08 10° NNW
Meteor 1-19 Rocket 4.4 20:57:24 27° S 21:00:41 71° E 21:06:37 10° NNE
Cosmos 1763 Rocket 4.3 20:55:42 10° SW 21:00:50 49° NW 21:05:58 10° NNE
Cosmos 1766 Rocket 4.3 20:57:08 10° N 21:01:16 44° ENE 21:03:33 23° SE
Cosmos 1470 3.3 21:03:12 10° NNW 21:06:16 36° W 21:07:06 30° SW
RESURS DK-1 2.9 21:04:26 10° NW 21:08:11 41° WSW 21:09:14 33° SSW
Cosmos 2322 Rocket 4.4 21:10:39 10° WNW 21:12:38 12° W 21:14:38 10° WSW
NOSS 0 Rocket 4.0 21:06:37 10° NW 21:12:43 62° WSW 21:16:09 26° S
NOSS 8 (H) 4.0 21:11:42 10° NW 21:14:31 61° SW 21:14:47 58° SSW
BREEZE-M DEB (TANK) 3.8 21:09:04 10° W 21:15:27 42° SSW 21:20:18 10° ESE
Cosmos 1975 3.4 21:12:43 10° NNW 21:16:12 40° W 21:17:20 31° SW
MetOp-A 3.8 21:16:05 30° S 21:18:31 76° WSW 21:23:13 10° NNW
Intercosmos 24 3.7 21:14:22 10° N 21:18:33 81° E 21:19:54 37° SSE
SL-16 R/B 3.4 21:14:02 10° NNW 21:19:26 42° NE 21:24:49 10° ESE
Lacrosse 4 Rocket 2.8 21:25:45 21° SE 21:26:27 22° ESE 21:29:36 10° ENE
ISS -1.5 21:26:42 10° W 21:27:26 14° WSW 21:27:26 14° WSW
Cosmos 841 Rocket 3.5 21:29:05 26° SSW 21:32:09 85° WNW 21:37:26 10° NNE
Cosmos 2237 Rocket 2.2 21:26:38 10° NW 21:32:20 73° WSW 21:35:40 25° SSE
Cosmos 1812 Rocket 3.8 21:33:38 29° SSW 21:35:45 65° WNW 21:40:11 10° N
Meteor 1-11 Rocket 4.1 21:30:25 10° NNW 21:35:58 54° W 21:38:54 26° SSW
Cosmos 1980 3.7 21:30:45 10° NW 21:36:21 64° WSW 21:39:29 26° S
NOSS 8 (E) 4.1 21:35:01 10° WNW 21:37:52 53° SW 21:38:00 53° SSW
Meteor 2-20 Rocket 4.4 21:36:40 27° S 21:39:55 69° E 21:45:36 10° NNE
CZ-2C R/B 2.6 21:37:19 28° S 21:40:09 72° WSW 21:45:22 10° NNW
COSMOS 2428 3.7 21:35:29 10° NW 21:40:30 33° WSW 21:42:51 24° SSW
CZ-4C R/B 4.1 21:38:06 10° NNE 21:41:11 32° E 21:42:10 27° SE
ACS3 Solar Sail 2.6 21:35:38 10° NNE 21:41:14 39° E 21:45:00 19° SSE
Meteor 2-4 Rocket 3.8 21:41:22 27° S 21:44:19 64° E 21:49:49 10° NNE
Meteor 1-10 Rocket 4.4 21:40:49 24° SSW 21:44:28 73° WNW 21:50:26 10° NNE
Cosmos 2227 Rocket 3.3 21:44:30 21° SSE 21:47:17 32° ESE 21:52:14 10° NE
Meteor 2-20 4.5 21:45:33 25° SSW 21:49:17 79° WNW 21:55:25 10° N
Okean 3 Rocket 4.1 21:46:22 10° N 21:50:49 55° ENE 21:53:39 21° SE
NOSS 8 (F) 4.5 21:50:21 10° WNW 21:53:03 42° SW 21:53:03 42° SW
Cosmos 1271 Rocket 4.5 21:52:42 14° WSW 21:54:33 21° WNW 21:57:11 10° NNW
CZ-4C R/B 3.9 21:50:01 10° NW 21:55:28 41° NNE 22:02:28 10° E
Cosmos 192 4.3 21:51:35 10° NNW 21:56:33 77° WSW 21:59:23 25° SSE
Cosmos 2221 3.7 21:54:54 19° WSW 21:57:15 32° WNW 22:01:03 10° N
Cosmos 2263 Rocket 3.6 21:56:11 17° SSE 21:59:10 26° ESE 22:03:41 10° NE
GP-B 3.9 21:55:21 10° N 21:59:27 40° W 22:01:32 24° SW
Meteor 1-27 Rocket 3.8 21:56:56 25° SSW 22:00:25 80° WNW 22:06:12 10° NNE
Cosmos 1842 Rocket 3.7 22:01:31 29° S 22:03:37 64° E 22:08:00 10° NNE
Cosmos 1238 Rocket 2.9 22:02:31 33° SSW 22:04:13 75° WNW 22:08:36 10° N
Cosmos 1805 Rocket 4.1 22:06:31 10° N 22:10:47 53° ENE 22:13:48 18° SE
Sich 1 2.8 22:09:57 10° NNW 22:14:09 89° W 22:16:18 28° S
Iridium 4 Rocket 3.8 22:11:57 25° S 22:15:26 89° W 22:21:19 10° N
Landsat 5 3.4 22:13:03 10° NNE 22:17:11 77° WNW 22:19:05 30° SSW
CZ-2C R/B 3.7 22:11:39 10° N 22:17:14 56° WNW 22:21:10 20° SW
SL-19 R/B 4.4 22:19:08 22° SE 22:20:52 51° ENE 22:24:01 10° N
Cosmos 2297 Rocket 2.2 22:17:12 22° SW 22:20:56 82° WNW 22:26:38 10° NNE
Cosmos 1745 Rocket 4.5 22:16:45 10° N 22:22:48 57° ENE 22:28:46 10° SSE
Cosmos 1655 Rocket 4.3 22:16:51 10° NNW 22:22:53 54° W 22:26:43 23° SSW
Cosmos 1758 3.0 22:19:48 10° N 22:23:27 86° ENE 22:25:10 29° SSE
USA 234 3.2 22:18:48 10° ENE 22:25:23 78° SSE 22:31:57 10° WSW
Alouette 2 Rocket 4.5 22:30:36 10° NW 22:33:54 30° W 22:35:30 23° SW
Cosmos 1408 Rocket 3.5 22:31:08 10° NNW 22:35:27 88° E 22:38:11 22° S
ATLAS 2AS CENTAUR R/B 3.0 22:28:51 10° NW 22:35:40 71° NE 22:42:27 10° ESE
Cosmos 1340 Rocket 2.8 22:32:57 10° NNW 22:36:48 77° ENE 22:39:16 21° SSE
SeaSat 1 3.1 22:34:43 24° SSW 22:36:54 36° WSW 22:41:26 10° NW
Meteor 2-10 Rocket 4.1 22:32:23 10° NNW 22:37:39 49° W 22:40:59 22° SSW
Iridium 45 4.4 22:37:59 31° S 22:39:34 86° W 22:43:01 10° N
SL-14 R/B 3.1 22:38:08 29° S 22:40:01 89° E 22:43:50 10° NNE
EXPRESS MD2 4.5 22:43:30 13° ESE 22:43:30 13° ESE 22:43:54 10° ESE
Cosmos 1125 Rocket 3.5 22:38:56 10° NNW 22:44:15 76° WSW 22:48:46 14° SSE
BlueWalker 3 2.5 22:43:33 29° S 22:44:20 33° SSE 22:47:33 10° E
Cosmos 1066 Rocket 4.3 22:40:54 22° SSW 22:44:23 67° WNW 22:49:55 10° N
Meteor 1-18 Rocket 4.3 22:49:51 21° SSW 22:53:38 72° WNW 22:59:20 10° NNE
DELTA 2 DEB (DPAF) 4.1 22:50:37 10° N 22:54:04 49° WNW 22:55:55 24° SW
Cosmos 2084 3.3 22:50:51 10° NW 22:54:55 58° SW 22:58:57 10° SSE
Cosmos 1814 Rocket 4.2 22:59:05 20° SW 23:02:44 67° WNW 23:07:59 10° NNE
Cosmos 1953 2.7 22:59:46 10° N 23:03:22 53° ENE 23:06:54 10° SSE
SL-16 R/B 2.4 22:58:12 10° NW 23:03:44 53° WSW 23:08:39 13° S
Lacrosse 4 Rocket 1.6 23:01:08 19° SW 23:03:51 63° NW 23:07:57 10° NE
BREEZE-M DEB (TANK) 3.7 23:07:01 24° SSW 23:07:22 24° S 23:11:43 10° SE
CZ-2D R/B 4.3 23:04:32 10° NE 23:08:29 20° E 23:12:26 10° SE
IDEFIX/ARIANE 42P 2.9 23:03:18 10° NNE 23:08:30 61° ESE 23:12:47 15° S
Cosmos 2219 3.9 23:04:46 16° S 23:09:00 46° ESE 23:14:21 10° NE
NPP 4.2 23:08:23 10° NNE 23:13:41 53° E 23:18:30 12° S
Cosmos 2237 Rocket 3.9 23:12:11 10° WNW 23:15:24 16° W 23:17:27 13° WSW
H-2A R/B 4.3 23:12:23 10° NE 23:16:18 20° E 23:20:13 10° SE
Cosmos 1633 Rocket 3.5 23:13:34 10° N 23:17:52 61° ENE 23:22:08 10° SSE
Cosmos 1151 Rocket 3.2 23:15:33 20° SSW 23:18:24 63° WNW 23:22:42 10° N
Cosmos 1500 Rocket 4.2 23:15:50 10° NNW 23:20:00 40° W 23:22:48 19° SSW
S3M 4.1 23:14:46 14° S 23:20:10 80° E 23:26:20 10° NNE
PSLV R/B 4.2 23:18:03 10° N 23:21:49 50° WNW 23:24:24 19° SW
ACS3 Solar Sail 2.3 23:18:00 10° N 23:23:43 49° WNW 23:28:30 15° SW
CENTAUR R/B 4.0 23:20:36 10° SSE 23:25:10 26° ESE 23:30:35 10° ENE
Meteor 1-22 Rocket 4.3 23:19:18 10° NNW 23:25:10 75° W 23:30:45 10° S
Cosmos 2315 Rocket 4.2 23:22:19 12° S 23:28:21 75° E 23:34:40 10° NNE
Cosmos 2227 Rocket 2.5 23:26:17 15° SW 23:31:01 62° NW 23:36:41 10° NNE
DMSP B5D2-2 4.4 23:27:02 10° SSE 23:32:11 68° ENE 23:37:24 10° NNW
H-2A R/B 3.9 23:31:06 10° SE 23:34:19 33° ENE 23:37:37 10° N
Envisat 4.2 23:31:23 10° NNE 23:36:05 37° E 23:40:46 10° SSE
Cosmos 2263 Rocket 2.3 23:37:50 15° SW 23:42:35 73° NW 23:48:11 10° NNE
BREEZE-M DEB (TANK) 3.1 23:35:56 10° WSW 23:44:05 46° S 23:47:15 10° ESE
MSX 3.9 23:38:27 10° NNE 23:44:15 79° WNW 23:49:33 12° SSW
CZ-4C R/B 3.0 23:38:11 10° NW 23:44:33 78° NE 23:52:47 10° SE
Cosmos 1709 Rocket 4.2 23:39:19 10° NNW 23:45:21 57° W 23:51:25 10° S
SL-16 R/B 4.4 23:42:00 10° ESE 23:47:31 34° NE 23:53:02 10° N
Cosmos 1666 Rocket 3.7 23:44:59 10° NNW 23:49:23 60° W 23:53:44 10° S
Cosmos 1943 3.3 23:43:58 10° NW 23:49:29 58° WSW 23:54:58 10° SSE
Meteor 1-15 Rocket 4.4 23:45:23 10° NNW 23:51:16 68° W 23:57:08 10° S
Cosmos 1867 3.5 23:46:08 10° NW 23:51:36 70° SW 23:57:01 10° SSE
NOSS 7 (H) 4.4 23:52:11 10° WNW 23:55:01 41° SW 23:57:55 10° SSE
